This demonstration page uses our WeatherBlox Daily Observations layout. Learn more.

Left ArrowRight Arrow

34.16533, -84.80231

Hourly Observations for August 25, 2019

Temp ( °F °C ) Dew Point ( °F °C ) Humidity (%) Winds ( mph kmh ) Pressure ( in mb ) Visibility ( mi km ) Precip ( " mm )
12:53 am 00:53 Cloudy 74 23.3 67 19.4 79 79 E 8 13 30.04 1017 10 16 0.00 0.00
1:53 am 01:53 Cloudy 73 22.8 66 18.9 79 79 E 8 13 30.04 1017 10 16 0.00 0.00
2:53 am 02:53 Cloudy 72 22.2 64 17.8 76 76 E 10 17 30.03 1017 10 16 0.00 0.00
3:53 am 03:53 Cloudy 71 21.7 64 17.8 79 79 E 6 9 30.02 1017 10 16 0.00 0.00
4:53 am 04:53 Cloudy 71 21.7 63 17.2 76 76 E 9 15 30.02 1017 10 16 0.00 0.00
5:53 am 05:53 Cloudy 71 21.7 63 17.2 76 76 ESE 8 13 30.03 1017 10 16 0.00 0.00
6:53 am 06:53 Cloudy 70 21.1 63 17.2 79 79 ESE 7 11 30.04 1017 10 16 0.00 0.00
7:53 am 07:53 Cloudy 70 21.1 62 16.7 76 76 E 8 13 30.06 1018 10 16 0.00 0.00
8:53 am 08:53 Cloudy 71 21.7 63 17.2 76 76 E 8 13 30.07 1018 10 16 0.00 0.00
9:53 am 09:53 Cloudy 71 21.7 62 16.7 73 73 ESE 7 11 30.07 1018 10 16 0.00 0.00
10:53 am 10:53 Cloudy 74 23.3 62 16.7 67 67 E 7 11 30.09 1019 10 16 0.00 0.00
11:53 am 11:53 Mostly Cloudy 74 23.3 63 17.2 69 69 E 10 17 30.08 1019 10 16 0.00 0.00
12:53 pm 12:53 Cloudy 75 23.9 63 17.2 66 66 E 9 15 30.07 1018 10 16 0.00 0.00
1:53 pm 13:53 Cloudy 77 25 64 17.8 64 64 E 8 13 30.06 1018 10 16 0.00 0.00
2:53 pm 14:53 Cloudy 77 25 64 17.8 64 64 SE 8 13 30.04 1017 10 16 0.00 0.00
3:02 pm 15:02 Cloudy 77 25 64 17.8 64 64 E 8 13 30.04 1017 10 16 0.00 0.00
3:53 pm 15:53 Mostly Cloudy 78 25.6 65 18.3 64 64 ESE 9 15 30.00 1016 10 16 0.00 0.00
4:53 pm 16:53 Cloudy 79 26.1 66 18.9 65 65 SSE 9 15 29.99 1016 10 16 0.00 0.00
5:53 pm 17:53 Cloudy 78 25.6 66 18.9 67 67 VRB 6 9 29.98 1015 10 16 0.00 0.00
6:20 pm 18:20 Cloudy 77 25 66 18.9 69 69 E 7 11 30.00 1016 10 16 0.00 0.00
6:36 pm 18:36 Cloudy 77 25 66 18.9 69 69 ESE 5 7 30.00 1016 10 16 0.00 0.00
6:53 pm 18:53 Cloudy 77 25 66 18.9 69 69 E 3 6 29.99 1016 10 16 0.00 0.00
7:01 pm 19:01 Cloudy 77 25 66 18.9 69 69 E 5 7 30.00 1016 10 16 0.00 0.00
7:53 pm 19:53 Cloudy 76 24.4 66 18.9 72 72 ESE 3 6 30.00 1016 10 16 0.00 0.00
9:53 pm 21:53 Cloudy 76 24.4 65 18.3 69 69 Calm 30.02 1017 10 16 0.00 0.00
10:53 pm 22:53 Cloudy 75 23.9 65 18.3 71 71 ESE 8 13 30.04 1017 10 16 0.00 0.00
11:06 pm 23:06 Cloudy 75 23.9 65 18.3 71 71 ESE 9 15 30.04 1017 10 16 0.00 0.00
11:53 pm 23:53 Cloudy 75 23.9 64 17.8 69 69 SE 13 20 30.04 1017 10 16 0.00 0.00

Powered by AerisWeather